Location: Casilda
(33.0440°S, 61.1680°W)
Time: 16:07:03
(UTC-03:00)

ISS - Pass Details

Date: 25 September 2022
Orbit: 414 x 417 km, 51.6° (Epoch: 24 September)

Event Time Altitude Azimuth Distance (km) Brightness Sun altitude
Exits shadow 05:23:56 18° 205° (SSW) 1,128 -1.7 -18.7°
Drops below altitude 10° 05:26:00 10° 168° (SSE) 1,514 -0.6 -18.3°
Sets 05:28:36 0° 148° (SSE) 2,384 0.8 -17.7°
